BEESAT-1

Last updated on Mon Sep 15 2025 00:03:09 GMT+0000 (Coordinated Universal Time)

1 35933U 09051C 25257.18211737 .00000774 00000+0 16792-3 0 9994 2 35933 98.4101 155.3588 0005831 19.0689 341.0729 14.60935466848878
UTC large
Height (km)
Speed (km/s)
/
Latitude / Longitude
Inclination (degrees)
Orbital Period (minutes)
Azimuth
Elevation
Range (km)
Doppler Factor

Next 0 passes for location: London (51.5072 / 0.1276)

Sorry there are no passes over London.